This demonstration page uses our WeatherBlox Daily Observations layout. Learn more.

41.55636, -103.73856

Hourly Observations for October 24, 2019

Temp ( °F °C ) Dew Point ( °F °C ) Humidity (%) Winds ( mph kmh ) Pressure ( in mb ) Visibility ( mi km ) Precip ( " mm )
12:58 am 00:58 Mostly Cloudy 35 1.8 22 -5.7 58 58 NNE 15 24 30.34 1027 10 16.0934 0 0
1:58 am 01:58 Mostly Cloudy 35 1.7 22 -5.5 59 59 N 16 26 30.39 1029 10 16.0934 0 0
2:58 am 02:58 Mostly Cloudy 33 0.5 23 -5.2 66 66 N 14 22 30.38 1029 10 16.0934 0 0
3:58 am 03:58 Mostly Cloudy 32 -0.2 23 -4.9 71 71 N 9 15 30.39 1029 10 16.0934 0 0
4:58 am 04:58 Mostly Cloudy 28 -2.3 23 -5.2 81 81 NW 7 11 30.43 1030 10 16.0934 0 0
5:58 am 05:58 Mostly Cloudy 28 -2 24 -4.7 82 82 Calm 30.42 1030 10 16.0934 0 0
6:58 am 06:58 Mostly Cloudy 31 -0.7 25 -3.8 80 80 NNW 6 9 30.44 1031 10 16.0934 0 0
7:58 am 07:58 Cloudy 31 -0.3 26 -3.1 82 82 NNW 3 6 30.44 1031 10 16.0934 0 0
8:58 am 08:58 Mostly Cloudy 30 -1.1 26 -3.5 84 84 NNW 8 13 30.45 1031 10 16.0934 0 0
9:58 am 09:58 Mostly Cloudy 31 -0.6 24 -4.2 77 77 NNW 9 15 30.46 1032 10 16.0934 0 0
10:58 am 10:58 Clear 26 -3.6 22 -5.3 88 88 NW 8 13 30.48 1032 10 16.0934 0 0
11:58 am 11:58 Clear 25 -3.7 24 -4.6 94 94 Calm 30.5 1033 10 16.0934 0 0
12:58 pm 12:58 Clear 24 -4.2 22 -5.7 89 89 W 7 11 30.52 1033 10 16.0934 0 0
1:58 pm 13:58 Sunny 23 -4.9 20 -6.4 89 89 WSW 6 9 30.54 1034 10 16.0934 0 0
2:58 pm 14:58 Sunny 29 -1.8 23 -4.8 80 80 NW 12 19 30.54 1034 10 16.0934 0 0
3:58 pm 15:58 Sunny 33 0.6 24 -4.5 69 69 NW 8 13 30.53 1034 10 16.0934 0 0
5:58 pm 17:58 Sunny 39 3.8 20 -6.9 46 46 NW 7 11 30.48 1032 10 16.0934 0 0
6:58 pm 18:58 Sunny 41 5.1 19 -7.1 41 41 WSW 7 11 30.44 1031 10 16.0934 0 0
7:58 pm 19:58 Sunny 44 6.6 17 -8.6 33 33 W 10 17 30.39 1029 10 16.0934 0 0
8:58 pm 20:58 Mostly Sunny 46 7.7 14 -10.1 27 27 W 12 19 30.35 1028 10 16.0934 0 0
9:58 pm 21:58 Mostly Sunny 45 7.2 14 -9.9 29 29 Calm 30.34 1027 10 16.0934 0 0
10:58 pm 22:58 Mostly Sunny 46 7.7 15 -9.6 28 28 Calm 30.34 1027 10 16.0934 0 0
11:58 pm 23:58 Sunny 43 6 14 -10.1 31 31 Calm 30.36 1028 10 16.0934 0 0

Powered by AerisWeather